This is the latest recevied weather packets stored in our database for station/object F4GMT-11. If no packets are shown the sender has not sent any weather packets the latest 10 day(s).
| Time | Temp. | Humidity | Pressure | Rain* | Wind** | Luminosity | Snow |
|---|---|---|---|---|---|---|---|
| 1778191049 | 18.33° C | 52% | 1011.1 hPa | - | - | - | - |
| 1778189848 | 18.89° C | 52% | 1011 hPa | - | - | - | - |
| 1778186245 | 19.44° C | 51% | 1010.4 hPa | - | - | - | - |
| 1778185045 | 20° C | 51% | 1010.3 hPa | - | - | - | - |
| 1778183844 | 20.56° C | 50% | 1010.2 hPa | - | - | - | - |
| 1778182645 | 20.56° C | 50% | 1010.2 hPa | - | - | - | - |
| 1778181443 | 21.11° C | 50% | 1010.3 hPa | - | - | - | - |
| 1778180243 | 21.11° C | 49% | 1010.2 hPa | - | - | - | - |
| 1778177843 | 21.67° C | 51% | 1010 hPa | - | - | - | - |
| 1778175441 | 22.22° C | 50% | 1009.6 hPa | - | - | - | - |
| 1778170641 | 22.22° C | 48% | 1010 hPa | - | - | - | - |
| 1778169441 | 22.78° C | 49% | 1010.2 hPa | - | - | - | - |
| 1778167042 | 22.78° C | 49% | 1010.2 hPa | - | - | - | - |
| 1778155040 | 20° C | 56% | 1012 hPa | - | - | - | - |
| 1778150238 | 18.33° C | 60% | 1012.8 hPa | - | - | - | - |
| 1778147839 | 17.78° C | 61% | 1013.2 hPa | - | - | - | - |
| 1778137039 | 12.78° C | 62% | 1014 hPa | - | - | - | - |
| 1778133438 | 11.67° C | 59% | 1014.1 hPa | - | - | - | - |
| 1778127438 | 12.22° C | 58% | 1013.7 hPa | - | - | - | - |
| 1778120238 | 12.78° C | 58% | 1014 hPa | - | - | - | - |
| 1778119038 | 13.33° C | 58% | 1014.1 hPa | - | - | - | - |
| 1778116638 | 13.33° C | 58% | 1014.1 hPa | - | - | - | - |
| 1778110638 | 14.44° C | 59% | 1014.9 hPa | - | - | - | - |
| 1778105840 | 15° C | 59% | 1015.1 hPa | - | - | - | - |
| 1778099838 | 16.11° C | 59% | 1015.2 hPa | - | - | - | - |
* Rain since midnight (hover to see other rain measurements)
** Current wind speed in m/s (hover to see current wind gust speed)